Location: Newark
(44.3248°N, 23.7839°E)
Time: 21:16:06
(UTC+00:00)

CAS-6 - Visible Passes

Search period start: 24 April 2024 00:00
Search period end: 04 May 2024 00:00
Orbit: 607 x 629 km, 97.8° (Epoch: 24 April)

Date Brightness Start Highest point End Pass type
(mag) Time Alt. Az. Time Alt. Az. Time Alt. Az.
24 Apr ? 20:06:38 41° NE 20:06:38 41° NE 20:10:10 10° N visible
24 Apr ? 21:43:45 16° WNW 21:43:45 16° WNW 21:45:20 10° NW visible
25 Apr ? 20:23:25 55° NNE 20:23:25 55° NNE 20:26:58 10° N visible
25 Apr ? 22:00:32 11° WNW 22:00:32 11° WNW 22:00:55 10° WNW visible
26 Apr ? 19:03:05 11° ENE 19:03:54 11° ENE 19:05:15 10° NE visible
26 Apr ? 20:40:12 57° NNW 20:40:12 57° NNW 20:43:40 10° NNW visible
27 Apr ? 19:19:52 16° ENE 19:20:23 16° ENE 19:23:02 10° NNE visible
27 Apr ? 20:56:59 44° NW 20:56:59 44° NW 21:00:16 10° NNW visible
28 Apr ? 19:36:38 23° ENE 19:36:53 23° ENE 19:40:15 10° NNE visible
28 Apr ? 21:13:45 31° WNW 21:13:45 31° WNW 21:16:44 10° NNW visible
29 Apr ? 19:53:24 33° ENE 19:53:25 33° ENE 19:57:16 10° N visible
29 Apr ? 21:30:31 22° WNW 21:30:31 22° WNW 21:33:02 10° NW visible
30 Apr ? 20:10:09 48° ENE 20:10:09 48° ENE 20:14:07 10° N visible
30 Apr ? 21:47:16 15° WNW 21:47:16 15° WNW 21:49:03 10° NW visible
01 May ? 20:26:54 69° NE 20:26:54 69° NE 20:30:52 10° N visible
01 May ? 22:04:01 10° WNW 22:04:01 10° WNW 22:04:13 10° WNW visible
02 May ? 19:06:32 11° ENE 19:07:43 12° ENE 19:09:27 10° NE visible
02 May ? 20:43:39 66° NW 20:43:39 66° NW 20:47:30 10° NNW visible
03 May ? 19:23:17 17° E 19:24:10 17° ENE 19:27:00 10° NNE visible
03 May ? 21:00:24 46° WNW 21:00:24 46° WNW 21:04:02 10° NNW visible
